This is the latest recevied weather packets stored in our database for station/object XE2OR-10. If no packets are shown the sender has not sent any weather packets the latest 10 day(s).
| Time | Temp. | Humidity | Pressure | Rain* | Wind** | Luminosity | Snow |
|---|---|---|---|---|---|---|---|
| 1777820032 | 21.11° C | 76% | 1026.9 hPa | 0 mm | - | 534 W/m² | - |
| 1777819729 | 20° C | 77% | 1026.9 hPa | 0 mm | - | 512 W/m² | - |
| 1777819432 | 19.44° C | 77% | 1026.8 hPa | 0 mm | - | 422 W/m² | - |
| 1777819129 | 19.44° C | 79% | 1027.1 hPa | 0 mm | - | 160 W/m² | - |
| 1777818828 | 19.44° C | 79% | 1026.9 hPa | 0 mm | - | 193 W/m² | - |
| 1777818529 | 18.89° C | 79% | 1027.1 hPa | 0 mm | - | 131 W/m² | - |
| 1777818232 | 18.89° C | 79% | 1027.1 hPa | 0 mm | - | 138 W/m² | - |
| 1777817929 | 18.89° C | 79% | 1026.9 hPa | 0 mm | - | 119 W/m² | - |
| 1777817632 | 19.44° C | 78% | 1026.7 hPa | 0 mm | - | 125 W/m² | - |
| 1777817329 | 19.44° C | 78% | 1026.7 hPa | 0 mm | - | 173 W/m² | - |
| 1777817028 | 19.44° C | 79% | 1026.8 hPa | 0 mm | - | 159 W/m² | - |
| 1777816729 | 18.33° C | 80% | 1026.9 hPa | 0 mm | - | 139 W/m² | - |
| 1777816432 | 18.33° C | 80% | 1026.8 hPa | 0 mm | - | 105 W/m² | - |
| 1777816129 | 18.33° C | 79% | 1026.9 hPa | 0 mm | - | 126 W/m² | - |
| 1777815832 | 17.78° C | 80% | 1026.8 hPa | 0 mm | - | 98 W/m² | - |
| 1777815529 | 18.33° C | 79% | 1026.9 hPa | 0 mm | - | 113 W/m² | - |
| 1777815229 | 18.33° C | 80% | 1026.5 hPa | 0 mm | - | 99 W/m² | - |
| 1777814929 | 18.33° C | 80% | 1026.4 hPa | 0 mm | - | 142 W/m² | - |
| 1777814632 | 17.78° C | 80% | 1026.4 hPa | 0 mm | - | 159 W/m² | - |
| 1777814329 | 17.78° C | 80% | 1026.2 hPa | 0 mm | - | 129 W/m² | - |
| 1777814032 | 17.22° C | 81% | 1026.3 hPa | 0 mm | - | 99 W/m² | - |
| 1777813729 | 16.67° C | 83% | 1026.3 hPa | 0 mm | - | 105 W/m² | - |
| 1777813429 | 15.56° C | 86% | 1026.2 hPa | 0 mm | - | 78 W/m² | - |
| 1777813129 | 15° C | 87% | 1026.6 hPa | 0 mm | - | 46 W/m² | - |
| 1777812832 | 15° C | 87% | 1026.4 hPa | 0 mm | - | 37 W/m² | - |
* Rain latest hour (hover to see other rain measurements)
** Current wind speed in m/s (hover to see current wind gust speed)